Regional Weather Roundup
Issued by NWS

Home | Current Version | Previous Version | Text Only | Print | Product List | Glossary Off
Versions: 1 2 3 4 5 6 7 8 9 10 11 12 13 14 15 16 17 18 19 20 21 22 23 24 25 26 27 28 29 30 31 32 33 34 35 36 37 38 39 40 41 42 43 44 45 46 47 48 49 50

681
ASUS43 KIND 080709
RWRIN

WEATHER ROUNDUP FOR INDIANA
NATIONAL WEATHER SERVICE INDIANAPOLIS IN
200 AM EST THU DEC 08 2016

NOTE: "FAIR" INDICATES FEW OR NO CLOUDS BELOW 12,000 FEET WITH NO
SIGNIFICANT WEATHER AND/OR OBSTRUCTIONS TO VISIBILITY.

* - STATION DOES NOT REPORT WEATHER SUCH AS PRECIPITATION OR FOG.

+ - STATION NOT QUALITY CONTROLLED BY THE NATIONAL WEATHER SERVICE.
    USE DATA WITH CAUTION...ESPECIALLY DEWPOINT AND RELATIVE
    HUMIDITY OBSERVATIONS.

INZ001>003-010>013-019-020-080800-
NORTHWEST INDIANA

CITY           SKY/WX    TMP DP  RH WIND       PRES   REMARKS
GARY /AIRPORT/ CLOUDY    26  16  66 W15G24    30.17S WCI  14
KNOX *+        CLOUDY    25   0  33 W13G20    30.17S WCI  13
LA PORTE +     FLURRIES  23  15  71 W15       30.15S WCI  10
MICHIGAN CITY+ CLOUDY    27  18  69 W13G24    30.15S WCI  16
MONTICELLO +   CLOUDY    24  12  61 W12G24    30.19S WCI  13
RENSSELAER +     N/A     27  19  74 W22G29    30.19S WCI  12
VALPARAISO     CLOUDY    24  15  68 W20       30.16S WCI  10

$$

LMZ046-743>745-080800-
SOUTHERN LAKE MICHIGAN

STATION/POSITION TIME  TEMP    WIND        PRES    WAVE
                       AIR SEA DIR/SP/G            HT
                 (UTC) (F)     (DEG/KT/KT) (MB)    (FT)
MICHIGAN CITY    0640   26     230/ 29/ 31   N/A

$$

INZ004-005-014>016-021>024-080800-
NORTH CENTRAL INDIANA

CITY           SKY/WX    TMP DP  RH WIND       PRES   REMARKS
GOSHEN         CLOUDY    25  16  68 W15       30.12S WCI  13
LOGANSPORT +   CLOUDY    25  18  74 W16       30.20R WCI  12
PERU/GRISSOM   CLOUDY    25  18  73 W18       30.15S WCI  12
ROCHESTER +    MOCLDY    27  19  74 W15G25    30.17R WCI  15
SOUTH BEND     CLOUDY    22  17  81 SW13      30.13S WCI  10
WARSAW +       CLOUDY    23  14  68 W16G24    30.14R WCI  10

$$

INZ006>009-017-018-025>027-080800-
NORTHEAST INDIANA

CITY           SKY/WX    TMP DP  RH WIND       PRES   REMARKS
ANGOLA *+      CLOUDY    25  19  80 W12       30.07S WCI  14
AUBURN +       CLOUDY    27  18  69 W12G22    30.12S WCI  16
FORT WAYNE     MOCLDY    26  17  68 W16       30.13S WCI  14
HUNTINGTON +   CLOUDY    25  16  70 W12G17    30.14F WCI  14
KENDALLVILLE + CLOUDY    25  18  74 W15G25    30.10S WCI  12

$$

INZ028-029-035-036-043>045-051>053-080800-
WEST CENTRAL INDIANA

CITY           SKY/WX    TMP DP  RH WIND       PRES   REMARKS
CRAWFORDSVL +  CLOUDY    24  18  78 W13       30.22S WCI  12
GREENCASTLE +  CLOUDY    27  21  80 W7        30.22S WCI  19
LAFAYETTE      CLOUDY    24  16  71 W15G24    30.21F WCI  11
TERRE HAUTE    CLOUDY    28  16  60 NW10G21   30.26S WCI  19

$$

INZ030>032-037>040-046>048-054>057-064-065-080800-
CENTRAL INDIANA

CITY           SKY/WX    TMP DP  RH WIND       PRES   REMARKS
CP ATTERBURY + MOCLDY    30  21  69 NW10G16   30.21S WCI  21
FRANKFORT +    MOCLDY    27  20  74 W18       30.21S WCI  14
GREENWOOD *+   CLEAR     28  21  73 W10G18    30.20S WCI  19
INDIANAPOLIS   CLOUDY    27  18  69 W14       30.20S WCI  16
-EAGLE CREEK   CLOUDY    27  18  69 NW10      30.19F WCI  17
KOKOMO +       CLOUDY    25  18  74 W21       30.18S WCI  11
MARION +       MOCLDY    24  18  77 W20G26    30.17S HAZE    WCI   9
MT COMFORT *+  CLOUDY    27  18  69 W17G23    30.18S WCI  14
SHELBYVILLE    CLOUDY    28  21  75 W8        30.18F WCI  20
ZIONSVILLE +   CLOUDY    24  17  74 NW15G21   30.19F WCI  12

$$

INZ033-034-041-042-049-050-058-059-080800-
EAST CENTRAL INDIANA

CITY           SKY/WX    TMP DP  RH WIND       PRES   REMARKS
MUNCIE         MOCLDY    26  18  71 NW14      30.16S WCI  14

$$

INZ060-061-067>069-081>083-085>088-080800-
SOUTHWEST INDIANA

CITY           SKY/WX    TMP DP  RH WIND       PRES   REMARKS
EVANSVILLE     CLOUDY    33  21  61 NW10G17   30.29R WCI  25
HUNTINGBURG *+ CLOUDY    31  24  75 NW7       30.27R WCI  24
WASHINGTON +   CLOUDY    32  25  76 NW12      30.27R WCI  23

$$

INZ062-063-066-070>080-084-089>092-080800-
SOUTH CENTRAL AND SOUTHEAST INDIANA

CITY           SKY/WX    TMP DP  RH WIND       PRES   REMARKS
BLOOMINGTON    CLOUDY    29  18  63 W9        30.21S WCI  20
MADISON *+     PTCLDY    32  23  69 W3        30.21F
NORTH VERNON + CLOUDY    32  28  86 W8        30.20F WCI  25
SEYMOUR +      CLOUDY    32  21  64 W8        30.22F WCI  25

$$





USA.gov is the U.S. government's official web portal to all federal, state and local government web resources and services.